Theta_e
308 307 307 307 308 306 295 285 275 291 292 277 269 268 275 286 285 287 286 287 286 285 285 284 284 284 287 293 292 287 286 284 281 282 285 289 291 287 286 279 281 281 280 276
308 307 307 307 308 303 289 279 279 290 290 271 271 279 281 283 284 284 285 286 288 287 286 282 285 286 290 292 290 288 290 284 279 279 285 288 286 290 291 287 286 283 282 276
308 307 306 307 307 304 288 278 273 278 281 279 274 271 274 278 285 285 287 287 288 286 285 287 283 284 289 291 291 294 293 285 282 279 282 287 284 286 290 289 284 281 284 284
308 307 306 308 307 302 287 277 272 272 271 273 278 280 280 280 276 284 284 284 285 284 277 277 281 284 285 288 291 291 289 282 284 285 286 287 286 286 286 286 286 285 285 287
308 307 306 308 307 301 285 276 275 276 274 280 281 281 274 280 282 282 281 281 283 283 280 280 278 282 284 284 288 288 290 283 284 282 284 284 282 283 286 286 286 287 288 286
307 307 307 308 307 298 282 281 282 280 280 278 276 273 279 281 282 284 285 283 282 282 283 284 285 286 287 288 286 286 287 284 279 279 283 284 278 281 283 282 282 285 284 287
307 307 307 308 307 298 287 284 283 277 269 278 277 280 282 282 282 281 283 283 282 284 285 285 284 286 286 285 285 287 286 283 279 276 280 273 281 285 285 282 282 284 284 285
307 306 306 307 307 301 289 285 284 278 270 277 279 280 281 281 281 281 282 283 284 285 283 276 269 269 273 274 279 281 286 284 278 274 273 281 282 283 283 281 280 283 284 285
306 306 306 306 307 304 290 287 287 282 276 274 283 279 281 274 270 272 275 283 284 283 278 268 261 260 269 267 270 281 282 282 276 271 271 270 282 285 286 285 278 283 285 285
306 306 306 307 307 304 292 288 288 284 275 278 282 277 279 281 277 272 277 279 280 282 268 265 266 262 274 264 266 270 270 269 276 277 269 276 284 285 285 278 279 284 285 285
305 305 306 306 306 304 293 290 289 285 276 282 283 285 282 281 280 275 276 276 276 270 267 263 264 268 271 270 270 272 275 267 275 272 266 269 284 284 281 284 285 285 285 284
305 305 306 306 305 303 295 288 292 288 282 278 285 284 284 284 283 282 281 279 278 280 272 272 270 264 266 266 263 275 270 277 272 276 279 283 284 283 285 285 285 284 284 285
305 305 306 306 305 302 294 290 286 283 278 282 278 278 283 286 284 286 280 279 283 283 281 273 268 265 274 261 265 272 276 279 278 273 277 280 282 283 284 284 284 284 283 284
305 304 305 305 304 301 295 288 286 284 278 274 274 283 280 284 284 285 285 284 284 283 281 272 267 264 277 272 275 276 274 275 272 274 277 278 281 283 283 284 283 283 284 283
304 304 304 305 304 299 291 287 285 285 282 272 274 279 281 283 283 284 285 284 282 277 272 275 270 277 279 277 277 275 276 274 274 272 278 280 282 282 282 283 283 283 283 283
303 303 304 304 301 297 289 280 287 287 284 275 268 279 281 282 283 284 283 282 279 275 272 268 274 278 277 268 268 274 277 278 279 278 275 277 277 274 275 280 279 279 277 278
303 303 304 303 300 288 282 281 286 290 284 274 272 275 281 282 275 271 281 284 281 273 276 276 277 278 280 273 269 276 276 278 278 277 276 276 273 278 272 270 272 270 269 269
303 303 303 301 298 292 286 291 291 286 277 273 269 272 277 281 274 270 280 275 266 270 270 274 274 273 277 272 276 277 276 275 274 275 275 277 272 269 268 264 264 267 268 267
302 302 299 292 286 281 285 293 288 282 279 269 264 269 268 279 279 273 271 268 265 269 275 268 277 264 271 273 273 273 274 275 276 271 267 267 268 268 265 262 264 264 267 261
300 294 286 279 283 294 292 282 276 276 270 265 265 264 270 276 271 274 272 269 266 268 270 272 273 269 274 275 274 273 273 271 266 270 271 266 266 264 263 262 260 261 263 264
290 285 283 285 295 285 280 275 270 267 272 270 265 267 274 276 268 269 270 264 263 265 264 272 267 265 270 267 264 264 263 264 265 264 263 261 263 263 260 263 258 258 260 259
289 288 289 286 282 279 277 271 269 271 270 269 269 269 271 274 271 269 269 262 267 261 260 268 266 269 269 264 265 262 259 259 259 262 269 265 258 257 257 258 257 257 257 259
290 285 283 282 280 275 272 271 271 272 268 271 272 273 275 274 272 269 265 260 263 260 267 264 266 266 263 262 258 259 253 253 255 257 254 252 253 254 258 262 266 259 256 258
283 280 276 279 275 275 271 268 270 270 272 275 276 272 275 271 271 269 262 259 263 262 261 263 265 267 268 261 256 260 261 257 257 256 254 254 262 269 269 262 255 254 255 257
281 280 275 276 271 263 264 266 273 269 280 278 275 275 275 270 270 263 262 264 264 262 264 266 267 265 265 261 257 261 258 257 255 253 254 263 269 269 265 254 255 253 254 254
282 280 274 271 271 265 265 267 275 280 280 276 276 272 270 266 266 264 263 263 262 268 265 266 261 260 259 259 260 259 258 259 257 254 262 269 269 268 257 253 253 254 253 256
279 274 270 274 275 274 273 278 279 283 280 273 272 271 270 265 259 260 261 266 270 266 263 259 266 270 267 262 260 259 259 257 255 264 267 269 265 254 255 257 254 251 252 253
Wind_Speed
16 16 13 11 9 9 6 4 2 3 2 5 1 1 5 3 4 2 3 3 4 4 4 5 5 5 4 10 15 10 2 5 1 1 3 4 4 10 13 5 6 8 4 3
17 17 15 13 13 12 5 4 2 2 3 2 2 3 4 3 2 3 3 3 3 2 4 6 5 4 6 8 10 12 6 3 3 1 2 5 3 4 5 5 6 3 3 3
19 17 16 15 15 14 6 4 1 4 4 1 6 4 3 3 3 4 1 4 2 5 3 4 6 7 6 9 9 21 10 2 5 3 2 3 3 2 6 8 3 3 4 8
21 19 18 17 16 16 6 3 5 3 3 3 3 3 3 2 3 3 2 1 1 3 4 5 4 4 10 5 9 9 8 4 2 2 5 2 5 1 2 3 1 3 11 9
22 21 20 18 17 14 5 6 5 1 2 2 5 2 4 4 3 3 3 3 4 3 4 5 7 10 5 4 7 7 6 4 4 5 7 10 12 15 6 3 3 4 7 5
24 23 22 20 20 10 4 2 2 4 2 3 4 5 6 7 3 4 3 1 2 5 5 5 10 10 14 9 7 5 6 6 5 2 4 4 6 14 13 8 11 6 7 6
25 24 23 21 23 10 4 4 4 5 3 4 5 5 5 6 4 3 3 2 2 3 6 6 3 6 9 9 8 4 6 7 2 3 4 6 4 1 6 14 10 10 10 10
27 25 23 22 23 17 3 3 5 4 3 3 2 3 3 2 3 2 3 3 2 5 5 5 7 7 8 6 4 7 3 3 3 3 3 3 2 3 4 5 9 8 7 8
28 26 24 22 22 21 4 2 3 4 7 7 3 5 4 4 3 5 5 4 4 3 3 6 4 2 3 9 15 2 5 4 4 4 5 2 2 4 2 2 8 7 7 9
29 26 24 24 23 22 5 2 3 5 4 3 4 4 6 5 2 3 3 5 4 3 3 4 3 2 3 4 4 8 7 5 5 5 3 3 4 10 2 4 1 4 4 4
29 27 25 24 23 23 6 3 2 5 4 2 2 1 4 3 2 4 4 4 4 4 5 5 3 2 3 2 4 2 3 3 3 3 5 3 7 4 5 0 1 0 2 3
30 28 26 25 24 24 9 4 2 3 6 3 1 2 2 2 1 5 1 3 2 4 4 0 3 2 2 2 2 3 3 4 3 5 4 1 3 2 2 1 1 3 2 3
31 29 27 26 25 24 8 6 5 5 4 3 3 1 4 3 4 1 3 2 2 0 3 4 3 3 3 2 5 3 3 0 3 5 4 0 4 1 2 2 2 2 2 2
32 30 28 26 26 21 11 5 4 4 4 5 5 2 2 5 5 2 1 1 4 4 3 2 3 3 2 3 3 3 5 2 4 5 5 2 2 2 3 4 2 4 4 2
32 30 28 27 26 19 9 4 3 3 6 5 1 2 3 4 4 3 3 3 3 3 3 1 3 1 2 1 1 5 6 7 5 6 5 3 2 3 3 3 3 5 5 6
33 30 28 28 26 20 6 4 3 4 5 7 3 2 2 4 6 7 6 4 3 3 4 3 2 3 2 2 4 7 6 4 5 3 3 2 3 4 3 2 3 3 3 3
32 30 29 29 26 5 5 7 3 12 4 6 4 1 1 1 3 3 2 3 2 3 2 1 1 1 2 2 5 6 5 5 2 1 3 4 1 2 2 2 5 3 4 3
33 31 29 26 20 12 5 3 10 5 8 5 6 2 2 0 1 2 1 2 3 4 2 0 1 1 2 7 9 5 1 2 1 4 3 2 2 2 3 2 4 5 4 4
36 34 30 9 4 3 2 14 11 4 6 6 4 8 6 2 2 2 4 3 2 3 2 2 1 2 9 10 6 3 5 6 6 2 1 3 2 3 4 4 5 3 5 4
40 22 6 3 4 19 16 7 4 5 4 4 4 1 4 4 1 1 3 2 2 2 4 2 3 7 8 8 8 6 7 5 4 4 5 3 2 1 3 3 4 4 7 8
8 6 4 4 23 5 4 3 5 2 1 3 4 5 8 1 4 4 1 3 2 2 6 3 3 6 6 2 2 1 3 4 6 3 3 3 5 4 3 6 4 5 6 5
12 14 10 4 4 3 5 5 1 5 10 4 7 5 5 3 3 5 2 4 2 4 1 1 5 8 6 2 3 4 4 4 4 3 2 2 4 4 4 5 5 5 5 6
18 8 5 5 3 7 12 13 7 7 7 7 6 6 5 4 2 4 4 5 6 1 2 7 9 5 4 5 3 1 2 3 2 0 1 1 3 3 4 5 4 5 5 5
6 7 11 10 9 11 7 5 8 5 6 11 9 6 5 3 4 3 6 4 2 2 3 10 5 8 6 5 3 5 5 6 4 3 2 2 3 3 2 3 4 4 5 4
6 7 9 10 3 3 2 3 8 3 13 14 8 5 4 2 5 3 5 3 6 8 9 6 5 6 7 6 6 6 5 6 5 4 3 3 1 1 2 3 4 4 4 2
5 5 5 3 6 1 1 1 9 10 14 5 4 6 5 3 6 5 11 10 10 7 7 5 4 5 4 5 5 5 5 5 5 4 4 2 1 1 2 2 4 4 3 4
7 3 1 4 6 9 5 9 9 14 14 5 5 7 6 5 3 4 6 8 6 5 4 3 6 8 8 7 6 6 7 6 6 4 5 3 4 4 3 2 3 2 3 3
Wind_Direction
202 197 194 204 196 139 79 98 41 312 27 56 88 165 199 289 282 136 238 247 256 267 286 289 281 312 281 334 323 315 229 289 331 312 284 249 179 189 196 173 207 197 226 13
197 193 192 200 181 158 128 123 179 321 101 149 251 269 280 255 267 228 196 244 208 294 287 297 283 301 305 316 324 341 346 308 319 32 20 15 71 132 174 232 313 296 87 158
192 189 191 197 185 159 88 92 64 329 48 38 141 161 268 280 224 260 322 276 333 310 277 210 300 305 309 325 318 331 333 332 332 79 353 333 273 171 169 195 238 210 128 140
188 185 192 193 178 154 97 54 240 191 214 281 159 159 168 244 285 249 232 342 139 280 281 314 273 303 309 299 3 327 349 317 326 21 352 65 17 87 146 170 294 293 152 126
183 182 192 188 173 143 83 138 140 25 160 139 119 215 231 197 253 217 256 209 294 201 234 196 294 316 320 322 328 319 338 308 328 355 6 84 51 22 9 52 8 53 104 68
182 184 190 185 169 137 124 192 91 113 176 128 113 222 206 189 148 257 259 271 299 248 243 236 254 263 273 272 306 312 316 326 351 319 326 344 24 356 10 57 20 342 43 17
181 185 188 186 176 162 129 180 115 100 239 188 208 183 212 176 187 249 294 250 224 308 303 269 250 256 266 263 280 267 303 333 15 304 341 50 54 31 63 61 47 41 32 18
181 185 187 187 182 171 112 154 126 133 152 182 239 190 198 104 18 249 261 269 258 314 339 10 8 340 3 322 298 320 315 319 349 63 30 109 60 17 10 7 36 14 13 16
181 185 187 187 184 174 106 154 125 116 123 237 150 152 166 183 188 341 265 289 300 16 57 55 77 347 262 314 329 358 360 46 103 14 84 87 283 297 347 225 49 5 8 14
181 183 187 185 181 171 129 143 150 103 115 267 150 165 173 142 114 167 280 318 350 30 47 74 96 255 313 344 327 336 340 356 40 19 80 319 314 312 278 72 76 336 5 17
180 180 183 178 175 167 128 144 142 121 124 278 300 36 138 106 132 140 238 31 331 28 69 108 230 134 258 310 264 280 340 64 6 25 57 345 3 354 75 204 273 346 19 27
178 179 182 175 173 166 130 126 111 107 82 175 32 55 46 31 93 132 129 174 205 177 94 109 110 19 23 175 300 320 317 183 210 170 212 346 335 87 338 324 58 360 359 335
175 177 180 172 169 166 133 135 143 76 98 31 55 192 341 29 21 279 118 295 230 131 160 161 189 147 123 148 249 286 253 170 237 39 298 235 335 15 55 63 90 335 340 319
173 175 175 169 163 155 128 141 158 94 107 120 260 336 22 322 338 181 137 191 79 80 43 83 127 140 183 204 233 228 211 59 202 270 287 3 219 145 360 339 15 29 4 19
170 173 170 163 154 137 96 92 187 148 129 161 203 359 352 316 314 77 83 101 102 88 48 62 229 187 173 313 288 249 189 194 162 226 210 159 214 128 341 350 7 22 8 341
166 167 163 156 144 131 97 37 262 179 124 103 102 234 349 14 48 73 64 39 42 90 129 223 266 261 140 130 239 254 208 198 185 216 195 207 287 306 323 330 337 339 327 300
160 161 157 147 149 100 125 187 209 148 104 93 101 125 329 324 80 25 94 76 46 94 116 203 261 270 235 187 227 260 236 221 206 168 122 331 281 201 311 283 304 314 279 271
154 151 143 141 124 97 44 41 114 89 92 75 120 126 171 180 50 52 6 77 35 1 173 246 216 340 236 253 238 261 54 74 339 250 219 254 314 339 333 326 355 360 325 312
145 138 123 110 65 105 173 118 86 55 115 142 113 145 190 152 119 134 17 86 45 257 232 238 201 247 228 228 222 228 216 191 187 158 51 340 282 290 294 340 344 326 297 315
130 124 113 165 204 135 135 18 40 3 343 42 113 75 133 135 127 69 100 351 198 176 239 320 225 253 268 240 211 186 192 195 140 48 325 0 339 340 315 283 284 276 289 306
123 128 112 133 145 84 48 102 119 252 286 169 172 154 135 232 124 155 177 176 227 152 256 213 260 270 244 247 235 214 163 181 198 146 132 177 175 213 252 293 269 270 276 261
120 106 94 96 92 70 138 188 169 188 206 163 136 168 139 151 118 103 150 141 97 234 237 165 255 250 242 230 204 188 172 170 160 198 214 216 231 233 225 253 263 257 255 280
123 104 116 131 167 173 190 189 199 179 162 170 163 124 125 117 72 92 107 98 209 55 154 231 232 258 265 218 211 216 149 138 109 112 322 306 280 260 211 267 248 274 272 265
117 136 146 190 179 220 190 151 139 170 137 139 131 109 123 135 94 126 108 235 104 111 226 233 234 220 214 176 178 134 198 188 170 209 225 256 260 301 95 2 292 290 289 299
125 140 184 196 152 45 128 134 106 167 145 139 115 83 97 117 114 93 114 118 231 208 226 228 215 206 175 177 183 190 168 173 185 170 184 233 289 335 37 334 323 310 302 18
134 151 120 144 102 102 108 160 122 143 149 101 70 119 113 178 135 142 207 155 217 231 208 218 146 172 190 176 175 172 166 164 155 165 193 192 76 59 149 357 1 6 16 66
138 157 97 146 98 145 151 150 142 156 151 144 135 132 165 100 90 236 198 207 215 207 218 191 189 170 174 163 154 161 161 158 167 183 179 139 103 108 88 83 322 17 33 71